星链-31716 (STARLINK-31716 )

导读 | 豆包AI

STARLINK-31716是美国太空探索技术公司SpaceX旗下星链(Starlink)星座的卫星,于2024年4月2日发射入轨,运行在近地轨道。星链计划旨在构建全球覆盖的低轨卫星互联网,可向全球偏远地区、基础设施薄弱区域提供高速宽带接入服务,这颗卫星将助力星链网络扩容,进一步完善星座组网覆盖。截至目前,SpaceX已累计发射超万颗星链卫星,持续推进全球卫星互联网建设。

Basic Information
目录编号:
59377
目录名称:
STARLINK-31716
国际标识:
2024-062D
轨道中心:
EARTH
卫星名称:
星链-31716
卫星全名:
星链-31716 (STARLINK-31716 )
卫星状态:
在轨 (已飞行759 天)
发射日期:
2024-04-02 UTC
国别 :
美国 (US)
星等 :
--
Orbit Information
数据来源 国际轨道数据 AOE轨道数据
星历时间 2026-04-30T22:19:37+0800
12小时前
查看轨道信息
2026-04-28T05:00:00+0800
3天前
查看轨道信息
半长轴 6853.373km 6853.358km
偏心率 0.0001202 0.0001008
轨道倾角 53.162° 53.162°
近地点辐角 90.491° 96.358°
升交点赤经 325.912° 338.556°
平近点角 269.623° 20.942°
近地点 474.412km 474.53km
远地点 476.06km 475.912km
周期 94.106分钟 94.105分钟
每日圈数 15.301932 15.301981
Detailed Information
固有亮度:
5
最大亮度:
0.3
卫星平台:
Starlink v2.0 mini
覆盖范围:
全球
运营商:
太空探索技术公司
运营商所在国:
美国
制造商(研发单位):
太空探索技术公司
制造商所在国:
美国
使用方式:
暂无
Satellite Introduction
星链(Starlink)计划是由太空探索技术公司(SpaceX)提出的一个巨型低轨卫星互联网星座项目,计划在2019年至2024年间在太空搭建由约1.2万颗卫星组成的“星链”网络,其中1584颗将部署在地球上空550千米处的近地轨道,并从2020年开始工作。该卫星仍在工作。
2D Orbit Map
3D Orbit Map
Orbit Altitude Analysis Chart
Orbit Inclination Analysis Chart
Orbit Comprehensive Analysis Chart
View Comprehensive Chart